Theta_e
287 288 289 290 292 292 291 288 289 289 289 289 288 288 288 287 286 286 286 288 286 285 285 285 285 284 284 283 282 281 281 281
285 286 285 286 287 287 286 285 285 286 286 286 286 286 285 284 284 283 284 284 283 282 282 281 281 281 281 280 280 279 279 280
282 283 282 283 282 282 283 282 283 283 283 283 283 283 282 281 281 281 280 281 280 280 280 279 279 279 279 278 278 278 277 278
278 279 279 279 279 279 280 281 282 281 281 281 280 280 280 280 280 280 279 278 278 278 278 278 278 278 278 278 277 276 276 276
275 276 277 277 278 278 279 280 280 280 280 279 279 279 279 280 280 280 280 279 279 278 277 277 276 276 276 276 276 276 276 276
273 274 276 276 277 278 278 279 279 278 278 278 279 279 279 279 279 279 279 279 279 278 278 278 278 277 275 275 274 274 274 275
272 274 275 276 277 278 278 278 278 277 277 277 277 277 278 278 279 279 278 278 278 277 277 277 278 279 279 276 274 274 273 272
272 273 275 277 277 276 277 278 277 276 276 276 276 276 276 277 277 276 277 278 278 278 277 276 277 279 278 277 275 274 273 272
272 274 275 276 276 277 276 276 275 275 275 276 275 275 275 275 274 275 276 275 276 276 277 277 278 279 278 277 274 273 273 272
272 273 275 274 275 275 274 274 274 273 273 274 274 273 274 273 273 274 274 274 274 275 275 276 276 279 279 276 274 273 272 272
272 273 273 274 276 274 273 273 272 272 272 273 273 272 272 272 272 273 273 273 273 273 273 274 275 278 278 276 273 271 271 271
273 272 273 274 274 272 272 271 273 273 273 272 272 272 272 272 272 272 271 271 271 272 272 273 273 275 277 276 272 271 269 268
271 271 272 273 272 271 270 271 272 272 271 271 272 272 272 271 272 272 272 271 270 271 271 272 273 275 275 274 273 272 267 266
270 270 270 271 271 269 269 270 269 269 268 269 270 272 272 272 272 272 272 270 270 270 270 271 272 272 274 272 271 271 268 267
269 268 267 269 269 269 269 269 267 267 268 269 269 270 271 272 272 271 271 271 270 269 269 270 271 270 271 269 267 269 266 264
268 267 267 267 267 268 268 268 268 268 268 269 268 269 269 270 270 270 270 272 270 270 270 267 268 269 271 269 266 266 266 260
267 267 266 266 265 264 265 267 267 268 268 268 268 268 268 268 268 270 270 271 272 272 271 270 271 271 270 269 268 267 265 259
266 266 265 264 263 262 263 264 265 267 267 267 267 267 266 266 265 265 267 267 268 269 269 269 269 268 268 267 265 264 262 257
264 262 262 261 260 261 264 263 261 263 263 267 266 266 265 264 263 263 262 262 264 265 266 266 267 266 266 265 262 258 258 257
260 259 259 258 259 259 259 262 265 267 266 265 264 263 262 264 264 263 263 262 262 263 264 262 264 264 263 262 257 256 256 256
Wind_Speed
17 16 15 16 14 13 20 25 21 20 18 16 18 18 23 18 20 16 15 16 18 19 18 20 19 18 17 16 15 15 12 10
15 15 16 13 13 16 22 29 21 19 19 17 19 20 22 21 18 18 16 19 25 19 18 19 21 18 17 18 15 17 13 12
17 17 15 12 15 22 23 24 19 18 18 20 20 22 25 22 22 19 21 20 20 19 20 19 18 17 18 17 15 16 15 14
19 15 12 14 19 22 21 21 17 18 20 21 23 23 23 23 21 18 20 21 20 19 19 18 17 17 16 15 15 14 14 13
18 15 13 17 21 19 21 17 17 20 20 22 22 22 21 20 20 20 18 20 20 19 18 17 15 14 14 14 13 13 12 11
13 12 16 21 18 17 18 18 17 20 21 21 20 20 20 19 21 18 18 19 17 17 17 16 14 11 11 12 12 11 10 10
15 17 21 16 15 16 18 18 18 21 21 19 18 18 17 20 18 16 19 18 16 17 16 16 12 23 22 14 10 11 11 11
14 15 15 15 15 17 17 17 19 19 18 17 17 19 18 16 16 17 17 14 16 15 16 16 14 22 21 20 10 11 11 12
12 13 14 15 16 16 17 17 18 18 17 17 16 17 15 15 16 15 12 13 13 15 14 14 15 24 20 18 13 12 11 10
10 10 12 13 13 15 16 16 17 17 16 14 14 14 13 15 13 12 11 11 12 11 13 13 14 24 22 15 11 11 10 10
10 10 13 13 12 15 16 16 16 14 15 14 13 12 14 13 11 10 12 11 10 13 12 14 12 23 23 17 9 10 9 10
8 10 10 9 10 14 14 15 13 12 12 12 12 13 12 11 10 10 11 11 9 10 9 10 10 13 21 21 11 10 8 8
10 11 11 11 12 14 15 11 11 11 11 11 11 9 8 9 9 9 7 8 7 6 6 4 7 16 16 18 17 16 8 9
9 10 10 9 9 12 10 9 8 8 8 9 9 9 9 10 8 7 6 7 8 5 5 6 6 6 15 18 20 19 11 9
8 8 9 8 9 10 8 7 6 9 8 8 9 8 7 6 6 6 6 4 5 7 6 5 4 7 9 9 8 11 9 12
6 7 7 6 7 6 6 4 7 7 7 7 6 6 6 7 5 5 7 6 4 5 4 5 6 7 12 12 8 8 11 8
5 6 6 5 5 4 5 4 4 6 5 4 4 4 4 4 4 12 12 13 12 10 9 5 10 13 15 16 14 14 14 4
6 5 5 5 4 2 3 3 4 5 5 4 5 5 5 5 5 4 4 5 9 10 9 11 9 10 12 12 11 9 7 4
6 5 4 4 4 1 2 4 4 5 5 4 4 4 4 3 2 2 3 3 3 4 5 7 10 8 10 10 8 4 4 3
6 5 5 4 4 2 1 3 3 4 4 4 4 3 2 1 1 1 2 3 3 3 3 4 9 8 7 8 3 4 5 5
Wind_Direction
17 31 37 48 65 81 74 70 59 62 66 71 71 72 74 64 61 56 56 62 76 61 63 61 59 61 68 64 62 66 58 57
17 32 40 48 56 69 68 67 60 61 63 65 68 73 76 68 62 59 62 57 60 61 63 65 60 60 66 65 63 66 67 58
17 33 39 41 57 61 63 72 66 68 70 68 70 69 71 68 63 54 60 62 66 65 65 66 66 64 66 67 61 59 54 50
26 24 37 46 54 57 60 66 67 69 68 68 68 65 68 72 72 73 73 70 69 69 67 63 60 62 62 64 64 61 56 49
22 23 37 51 56 60 64 68 73 71 69 69 68 71 70 71 72 67 65 72 68 64 66 66 62 59 56 56 56 54 50 53
13 24 48 49 55 63 72 67 69 73 71 69 69 69 70 73 69 68 65 67 68 70 66 63 62 59 58 60 59 54 49 44
17 34 40 50 64 68 68 70 70 70 69 70 72 76 73 68 70 71 70 68 66 63 63 60 56 56 57 61 58 52 43 36
25 38 46 60 64 63 63 66 68 70 69 70 69 68 66 70 69 63 63 65 66 67 65 61 51 48 47 45 46 46 39 32
29 42 45 51 55 65 64 65 65 65 64 63 65 66 65 64 63 62 63 62 59 59 58 55 47 45 37 40 38 34 33 28
31 34 55 59 61 66 66 66 65 62 62 63 67 69 67 65 63 61 62 63 57 51 47 48 44 36 37 30 30 22 17 16
40 48 48 47 61 66 65 63 63 63 62 58 61 65 61 60 59 57 56 60 54 53 43 33 31 29 29 34 17 9 10 9
63 66 66 65 68 69 70 67 69 68 69 66 64 63 61 59 54 56 55 51 48 53 49 36 18 24 26 26 19 10 7 352
71 65 61 68 79 81 75 74 75 75 69 62 58 63 62 63 57 51 57 53 54 46 42 29 30 24 21 22 19 15 9 358
84 80 63 62 76 85 84 89 85 78 69 60 59 56 52 50 48 51 47 42 39 38 23 26 22 19 19 14 10 6 8 358
105 96 89 76 78 85 91 82 70 71 68 63 62 58 57 57 48 42 40 41 39 30 26 359 5 10 14 15 3 351 354 359
119 111 104 97 83 68 76 60 81 76 73 72 67 63 75 58 55 63 39 43 39 24 25 7 9 3 358 1 359 350 351 358
133 119 105 86 71 46 21 22 76 86 77 73 84 79 61 58 76 50 42 29 26 23 26 12 357 357 355 357 352 344 355 339
147 123 122 116 111 46 34 28 52 108 109 92 71 58 45 36 28 17 18 25 18 2 12 1 346 349 346 349 341 329 351 326
129 122 136 141 145 117 90 96 87 89 64 83 71 63 60 49 36 359 344 335 331 339 314 343 340 335 340 343 341 326 326 307
129 149 154 158 173 179 150 127 113 113 99 94 93 77 65 7 332 311 303 311 312 317 292 335 319 313 330 346 323 314 307 303